Detroit, MI

5:56 AM EDT on April 23, 2018 (GMT -0400)
Detroit City

Weather History for KDET - April, 2013

Change the Weather History Date:

Sunday, April 14, 2013

  Actual Average Record
Temperature  
Mean Temperature 40 °F -  
Max Temperature 45 °F 57 °F 82 °F (2006)
Min Temperature 36 °F 39 °F 20 °F (1950)
Degree Days  
Heating Degree Days 24    
Moisture  
Dew Point 30 °F    
Average Humidity 69    
Maximum Humidity 79    
Minimum Humidity 60    
Precipitation  
Precipitation 0.00 in - - ()
Sea Level Pressure  
Sea Level Pressure 30.06 in    
Wind  
Wind Speed 5 mph (SSE)    
Max Wind Speed 14 mph    
Max Gust Speed -    
Visibility 10 miles    
Events Rain    
Averages and records for this station are not official NWS values.
T = Trace of Precipitation, MM = Missing Value Source: NWS Daily Summary

Daily Weather History Graph

Daily Weather History Graph

Search for Another Location

Airport or City:

Astronomy

Apr. 14, 2013 Rise Set
Actual Time 6:52 AM EDT 8:12 PM EDT
Civil Twilight 6:23 AM EDT 8:42 PM EDT
Nautical Twilight 5:48 AM EDT 9:17 PM EDT
Astronomical Twilight 5:11 AM EDT 9:54 PM EDT
Moon 9:24 AM EDT (4/14) No Moon Set
Length of Visible Light 14h 19m
Length of Day
13h 20m
Waxing Crescent, 17% of the Moon is Illuminated
Apr 14
Waxing Crescent
Apr 18
First Quarter
Apr 25
Full
May 2
Last Quarter
May 9
New

Hourly Weather History & Observations

Time (EDT) Temp. Windchill Dew Point Humidity Pressure Visibility Wind Dir Wind Speed Gust Speed Precip Events Conditions
12:53 AM 39.0 °F - 28.0 °F 65% 30.01 in 10.0 mi Calm Calm - N/A   Overcast
1:53 AM 37.9 °F 34.4 °F 27.0 °F 65% 30.02 in 10.0 mi WSW 4.6 mph - N/A   Overcast
2:53 AM 39.0 °F 34.0 °F 26.1 °F 60% 30.02 in 10.0 mi WSW 6.9 mph - N/A   Overcast
3:53 AM 39.0 °F 36.8 °F 26.1 °F 60% 30.03 in 10.0 mi West 3.5 mph - N/A   Overcast
4:53 AM 37.0 °F 33.3 °F 26.1 °F 65% 30.04 in 10.0 mi WSW 4.6 mph - N/A   Overcast
5:53 AM 36.0 °F 33.3 °F 26.1 °F 67% 30.05 in 10.0 mi WSW 3.5 mph - N/A   Partly Cloudy
6:53 AM 36.0 °F 31.1 °F 27.0 °F 70% 30.08 in 10.0 mi WSW 5.8 mph - N/A   Mostly Cloudy
7:53 AM 37.0 °F 34.5 °F 27.0 °F 67% 30.11 in 10.0 mi West 3.5 mph - N/A   Overcast
8:53 AM 37.9 °F - 28.0 °F 68% 30.11 in 10.0 mi Calm Calm - N/A   Overcast
9:53 AM 39.0 °F - 27.0 °F 62% 30.10 in 10.0 mi Calm Calm - N/A   Overcast
10:53 AM 39.0 °F 35.7 °F 27.0 °F 62% 30.12 in 10.0 mi South 4.6 mph - N/A   Overcast
11:53 AM 39.9 °F 34.5 °F 28.9 °F 65% 30.14 in 10.0 mi South 8.1 mph - N/A   Overcast
12:53 PM 39.0 °F 34.8 °F 32.0 °F 76% 30.13 in 10.0 mi SSW 5.8 mph - 0.00 in   Overcast
1:53 PM 39.9 °F - 33.1 °F 77% 30.12 in 10.0 mi Calm Calm - 0.00 in Rain Light Rain
2:53 PM 41.0 °F 38.0 °F 35.1 °F 79% 30.10 in 10.0 mi SSE 4.6 mph - 0.00 in Rain Light Rain
3:53 PM 42.8 °F 38.6 °F 33.8 °F 70% 30.08 in 10.0 mi ESE 6.9 mph - N/A   Overcast
4:53 PM 45.0 °F 40.1 °F 34.0 °F 65% 30.06 in 10.0 mi ESE 9.2 mph - N/A   Scattered Clouds
5:53 PM 45.0 °F 40.1 °F 35.1 °F 68% 30.05 in 10.0 mi ESE 9.2 mph - N/A   Clear
6:53 PM 45.0 °F 39.7 °F 35.1 °F 68% 30.05 in 10.0 mi ESE 10.4 mph - N/A   Clear
7:53 PM 43.0 °F 37.7 °F 34.0 °F 71% 30.05 in 10.0 mi East 9.2 mph - N/A   Clear
8:53 PM 41.0 °F 34.7 °F 33.1 °F 73% 30.04 in 10.0 mi East 10.4 mph - N/A   Clear
9:53 PM 39.9 °F 33.4 °F 33.1 °F 77% 30.04 in 10.0 mi East 10.4 mph - N/A   Clear
10:53 PM 39.9 °F 32.1 °F 33.1 °F 77% 30.00 in 10.0 mi ESE 13.8 mph - N/A   Clear
11:53 PM 39.0 °F 33.4 °F 33.1 °F 79% 29.99 in 10.0 mi ESE 8.1 mph - N/A   Clear